Location: Doussal
(55.6167°N, 116.8333°W)
Time: 04:12:23
(UTC+00:00)

METEOR M2 - Pass Details

Date: 11 December 2023
Orbit: 818 x 826 km, 98.4° (Epoch: 25 February)

Event Time Altitude Azimuth Distance (km) Brightness Sun altitude
Rises 02:34:41 0° 227° (SW) 3,359 ? -26.4°
Reaches altitude 10° 02:38:48 10° 258° (WSW) 2,433 ? -27.0°
Maximum altitude 02:40:44 12° 280° (W) 2,304 ? -27.2°
Drops below altitude 10° 02:42:42 10° 301° (WNW) 2,438 ? -27.5°
Sets 02:46:51 0° 333° (NNW) 3,376 ? -28.1°
